星链-5110 (STARLINK-5110 )

导读 | 星芒AI

STARLINK-5110 是 SpaceX Starlink 项目中的一颗低轨通信卫星,属于第 51 批发射的星链卫星群。该卫星运行在约 550 公里的高度,旨在为全球用户提供高速互联网服务。它采用先进的推进系统和激光通信技术,以提升网络效率和稳定性。作为星链计划的一部分,STARLINK-5110 有助于扩大卫星互联网覆盖范围,特别是在偏远和网络基础设施薄弱的地区。

基本信息
目录编号:
54839
目录名称:
STARLINK-5110
国际标识:
2022-177V
轨道中心:
EARTH
卫星名称:
星链-5110
卫星全名:
星链-5110 (STARLINK-5110 )
卫星状态:
已陨落 最后检测时间 2024-06-26
发射日期:
2022-12-28 UTC
国别 :
美国 (US)
星等 :
--
轨道信息
数据来源 国际轨道数据
星历时间: 2024-06-26T19:46:34+0800
轨道信息已过期501天
半长轴: 6574.565km
偏心率: 0.0007881
轨道倾角: 42.983°
近地点辐角 14.240°
升交点赤经 244.938°
平近点角 73.682°
近地点: 191.248km
远地点: 201.612km
周期: 88.422分钟
每日圈数: 16.285544
详细信息
固有亮度:
5
最大亮度:
2.5
卫星平台:
Starlink v1.5
覆盖范围:
全球
运营商:
太空探索技术公司
运营商所在国:
美国
制造商(研发单位):
太空探索技术公司
制造商所在国:
美国
使用方式:
暂无
卫星简介
星链(Starlink)计划是由太空探索技术公司(SpaceX)提出的一个巨型低轨卫星互联网星座项目,计划在2019年至2024年间在太空搭建由约1.2万颗卫星组成的“星链”网络,其中1584颗将部署在地球上空550千米处的近地轨道,并从2020年开始工作。该卫星已陨落。